This is the latest recevied weather packets stored in our database for station/object OK1JRA-6. If no packets are shown the sender has not sent any weather packets the latest 10 day(s).
| Time | Temp. | Humidity | Pressure | Rain* | Wind** | Luminosity | Snow |
|---|---|---|---|---|---|---|---|
| 1777025098 | 28.33° C | 17% | 1019.1 hPa | 0 mm | - | - | - |
| 1777025095 | 28.33° C | 17% | 1019.1 hPa | 0 mm | - | - | - |
| 1777025095 | 28.33° C | 17% | 1019.1 hPa | 0 mm | - | - | - |
| 1777024792 | 27.22° C | 17% | 1019.2 hPa | 0 mm | - | - | - |
| 1777024788 | 27.22° C | 17% | 1019.2 hPa | 0 mm | - | - | - |
| 1777024788 | 27.22° C | 17% | 1019.2 hPa | 0 mm | - | - | - |
| 1777024486 | 26.67° C | 16% | 1019.2 hPa | 0 mm | - | - | - |
| 1777024486 | 26.67° C | 16% | 1019.2 hPa | 0 mm | - | - | - |
| 1777024482 | 26.67° C | 16% | 1019.2 hPa | 0 mm | - | - | - |
| 1777024180 | 26.11° C | 17% | 1019.2 hPa | 0 mm | - | - | - |
| 1777024176 | 26.11° C | 17% | 1019.2 hPa | 0 mm | - | - | - |
| 1777024176 | 26.11° C | 17% | 1019.2 hPa | 0 mm | - | - | - |
| 1777023874 | 25.56° C | 16% | 1019.3 hPa | 0 mm | - | - | - |
| 1777023873 | 25.56° C | 16% | 1019.3 hPa | 0 mm | - | - | - |
| 1777023870 | 25.56° C | 16% | 1019.3 hPa | 0 mm | - | - | - |
| 1777023870 | 25.56° C | 16% | 1019.3 hPa | 0 mm | - | - | - |
| 1777023567 | 25° C | 16% | 1019.2 hPa | 0 mm | - | - | - |
| 1777023564 | 25° C | 16% | 1019.2 hPa | 0 mm | - | - | - |
| 1777023564 | 25° C | 16% | 1019.2 hPa | 0 mm | - | - | - |
| 1777023261 | 25° C | 19% | 1019.4 hPa | 0 mm | - | - | - |
| 1777023261 | 25° C | 19% | 1029.4 hPa | 76.2 mm | - | - | - |
| 1777023257 | 25° C | 19% | 1019.4 hPa | 0 mm | - | - | - |
| 1777023257 | 25° C | 19% | 1019.4 hPa | 0 mm | - | - | - |
| 1777022955 | 23.89° C | 19% | 1019.4 hPa | 0 mm | - | - | - |
| 1777022951 | 23.89° C | 19% | 1019.4 hPa | 0 mm | - | - | - |
* Rain latest hour (hover to see other rain measurements)
** Current wind speed in m/s (hover to see current wind gust speed)